Location: Cormont
(50.5693°N, 1.7416°E)
Time: 03:09:55
(UTC+00:00)

STARLINK-29 - Pass Details

Date: 21 October 2019
Orbit: 438 x 448 km, 53.0° (Epoch: 20 November)

Event Time Altitude Azimuth Distance (km) Brightness Sun altitude
Rises 17:20:22 0° 288° (WNW) 2,432 8.2 -5.6°
Reaches altitude 10° 17:22:29 10° 289° (WNW) 1,562 7.1 -5.9°
Maximum altitude 17:26:00 83° 18° (NNE) 452 3.2 -6.5°
Drops below altitude 10° 17:29:31 10° 107° (ESE) 1,564 5.4 -7.0°
Enters shadow 17:30:06 - 107° (ESE) 1,797 5.7 -7.1°
